Location: Augirein
(42.9320°N, 0.9181°E)
Time: 02:49:20
(UTC+00:00)

USA 305 - Pass Details

Date: 20 June 2021
Orbit: 558 x 580 km, 54.0° (Epoch: 13 July)

Event Time Altitude Azimuth Distance (km) Brightness Sun altitude
Exits shadow 02:46:14 10° 267° (W) 1,841 5.1 -13.2°
Maximum altitude 02:50:05 34° 334° (NNW) 924 4.2 -12.7°
Drops below altitude 10° 02:53:57 10° 41° (NE) 1,855 7.1 -12.3°
Sets 02:56:22 0° 51° (NE) 2,756 8.3 -12.0°
